Home > Weather > Fort Nelson > Past weeks

Flag for Canada Past Weather in Fort Nelson, British Columbia, Canada — Yesterday and Last 2 Weeks

Now
55 °F

Fog.


Feels Like: 55 °F
Forecast: 59 / 72 °F
Wind: 5 mph from Southwest

Location: Fort Nelson

Current Time: Jul 23, 2016 at 6:12:55 AM

Latest Report: Jul 23, 2016 at 5:00 AM


Visibility: 20 mi

Pressure: 29.78 "Hg

Humidity: 100%

Dew Point: 55 °F

Location of Fort NelsonLocation

Past Weather in Fort Nelson — Graph

°F

Fort Nelson Temperature Yesterday

Maximum temperature yesterday: 70 °F (at 1:00 PM)
Minimum temperature yesterday: 55 °F (at 1:00 AM)
Average temperature yesterday: 62 °F

High & Low Weather Summary for the Past Weeks

 TemperatureHumidityPressure
High84 °F (Jul 15, 6:00 PM)100% (Jul 8, 5:00 AM)30.29 "Hg (Jul 8, 5:00 AM)
Low46 °F (Jul 14, 5:00 AM)26% (Jul 14, 5:00 PM)29.69 "Hg (Jul 19, 3:00 AM)
Average65 °F69%29.94 "Hg
* Reported Jul 8 4:00 AM — Jul 23 4:00 AM, Fort Nelson, Weather by CustomWeather, © 2016

Note: Actual official high and low records may vary slightly from our data, if they occured in-between our weather recording intervals... More about our weather records

Advertising

Fort Nelson Weather History for the Previous 24 Hours

Scroll right to see more
 ConditionsComfort  
Time TempWeatherWind HumidityBarometerVisibility
4:00 AM
Sat, Jul 23
55 °FPartly cloudy.5 mph100%29.78 "Hg15 mi
3:00 AM57 °FOvercast.3 mph94%29.78 "Hg15 mi
2:00 AM57 °FOvercast.6 mph94%29.78 "Hg15 mi
1:00 AM57 °FThunderstorms. Mostly cloudy.3 mph94%29.77 "Hg15 mi
12:00 AM61 °FSprinkles. Mostly cloudy.9 mph83%29.77 "Hg15 mi
11:00 PM
Fri, Jul 22
61 °FPassing clouds.2 mph94%29.76 "Hg15 mi
10:00 PM61 °FPartly sunny.2 mph94%29.75 "Hg20 mi
9:00 PM64 °FPartly sunny.3 mph83%29.75 "Hg30 mi
8:00 PM66 °FPartly sunny.3 mph73%29.75 "Hg30 mi
7:00 PM66 °FBroken clouds.5 mph68%29.75 "Hg30 mi
6:00 PM66 °FPartly sunny.5 mph73%29.75 "Hg15 mi
5:00 PM66 °FScattered showers. Broken clouds.6 mph68%29.76 "Hg15 mi
4:00 PM68 °FScattered showers. Partly sunny.7 mph69%29.75 "Hg20 mi
3:00 PM68 °FPartly sunny.6 mph69%29.75 "Hg20 mi
2:00 PM64 °FBroken clouds.6 mph73%29.77 "Hg20 mi
1:00 PM70 °FBroken clouds.12 mph43%29.76 "Hg20 mi
12:00 PM68 °FBroken clouds.10 mph49%29.77 "Hg30 mi
11:00 AM66 °FBroken clouds.7 mph56%29.77 "Hg30 mi
10:00 AM64 °FBroken clouds.5 mph68%29.77 "Hg20 mi
9:00 AM59 °FMostly cloudy.5 mph88%29.77 "Hg20 mi
8:00 AM59 °FSprinkles. Mostly cloudy.6 mph82%29.77 "Hg20 mi
7:50 AM57 °FSprinkles. Mostly cloudy.2 mph88%29.77 "Hg20 mi
7:00 AM55 °FSprinkles. Mostly cloudy.3 mph94%29.77 "Hg20 mi
6:00 AM55 °FSprinkles. Partly sunny.No wind88%29.77 "Hg15 mi
Weather by CustomWeather, © 2016

See weather overviewHow to use our weather pages